Weather History for KSUU - October, 2012

Change the Weather History Date:

Monday, October 8, 2012

  Actual Average Record
Temperature  
Mean Temperature 62 °F -  
Max Temperature 74 °F 78 °F 98 °F (1996)
Min Temperature 52 °F 51 °F 45 °F (2007)
Degree Days  
Heating Degree Days 2    
Growing Degree Days 12 (Base 50)    
Moisture  
Dew Point 50 °F    
Average Humidity 67    
Maximum Humidity 87    
Minimum Humidity 43    
Precipitation  
Precipitation 0.00 in - - ()
Sea Level Pressure  
Sea Level Pressure 29.97 in    
Wind  
Wind Speed 16 mph (WSW)    
Max Wind Speed 24 mph    
Max Gust Speed 25 mph    
Visibility 10 miles    
Events      
Averages and records for this station are not official NWS values.
T = Trace of Precipitation, MM = Missing Value Source: NWS Daily Summary

Daily Weather History Graph

Daily Weather History Graph

Search for Another Location

Airport or City:

Trip Planner

Search our weather history database for the weather conditions in past years. The results will help you decide how hot, cold, wet, or windy it might be!

Date:

Astronomy

Oct. 08, 2012 Rise Set
Actual Time 7:10 AM PDT 6:39 PM PDT
Civil Twilight 6:44 AM PDT 7:05 PM PDT
Nautical Twilight 6:13 AM PDT 7:36 PM PDT
Astronomical Twilight 5:42 AM PDT 8:06 PM PDT
Moon 12:00 AM PDT (10/8) 2:27 PM PDT (10/8)
Length of Visible Light 12h 21m
Length of Day
11h 28m
Last Quarter, 45% of the Moon is Illuminated
Oct 8
Last Quarter
Oct 15
New
Oct 21
First Quarter
Oct 29
Full
Nov 6
Last Quarter

Hourly Weather History & Observations

Time (PDT) Temp. Dew Point Humidity Pressure Visibility Wind Dir Wind Speed Gust Speed Precip Events Conditions
12:55 AM 54.7 °F 49.5 °F 83% 29.96 in 10.0 mi WSW 15.0 mph - N/A   Clear
1:55 AM 54.3 °F 48.6 °F 81% 29.96 in 10.0 mi WSW 10.4 mph - N/A   Clear
2:55 AM 54.3 °F 48.2 °F 80% 29.96 in 10.0 mi WSW 17.3 mph - N/A   Clear
3:55 AM 54.1 °F 47.5 °F 78% 29.95 in 10.0 mi WSW 17.3 mph - N/A   Clear
4:55 AM 53.4 °F 47.7 °F 81% 29.97 in 10.0 mi WSW 20.7 mph - N/A   Clear
5:55 AM 53.2 °F 48.0 °F 82% 29.96 in 10.0 mi WSW 15.0 mph - N/A   Clear
6:55 AM 52.0 °F 48.2 °F 87% 29.97 in 10.0 mi WSW 12.7 mph - N/A   Clear
7:55 AM 53.8 °F 48.6 °F 82% 29.98 in 10.0 mi WSW 13.8 mph - N/A   Clear
8:55 AM 58.8 °F 48.9 °F 70% 29.99 in 10.0 mi WSW 17.3 mph - N/A   Clear
9:55 AM 63.0 °F 49.3 °F 61% 30.01 in 10.0 mi WSW 18.4 mph - N/A   Clear
10:55 AM 66.7 °F 49.5 °F 54% 30.00 in 10.0 mi WSW 16.1 mph - N/A   Clear
11:55 AM 69.3 °F 49.6 °F 50% 30.00 in 10.0 mi WSW 17.3 mph - N/A   Clear
12:55 PM 71.6 °F 49.6 °F 46% 29.99 in 10.0 mi WSW 16.1 mph 21.9 mph N/A   Clear
1:55 PM 73.9 °F 50.4 °F 43% 29.97 in 10.0 mi WSW 15.0 mph - N/A   Clear
2:55 PM 73.8 °F 50.0 °F 43% 29.96 in 10.0 mi SW 17.3 mph 23.0 mph N/A   Clear
3:55 PM 73.6 °F 49.6 °F 43% 29.96 in 10.0 mi West 18.4 mph 25.3 mph N/A   Clear
4:55 PM 71.6 °F 48.9 °F 45% 29.96 in 10.0 mi West 17.3 mph - N/A   Clear
5:55 PM 69.1 °F 48.9 °F 49% 29.95 in 10.0 mi WSW 24.2 mph - N/A   Clear
6:55 PM 65.3 °F 49.1 °F 56% 29.95 in 10.0 mi WSW 17.3 mph - N/A   Clear
7:55 PM 62.4 °F 50.5 °F 65% 29.97 in 10.0 mi WSW 16.1 mph - N/A   Clear
8:55 PM 59.9 °F 51.6 °F 74% 29.98 in 10.0 mi WSW 19.6 mph - N/A   Clear
9:55 PM 57.7 °F 52.2 °F 82% 29.99 in 10.0 mi WSW 18.4 mph - N/A   Clear
10:55 PM 56.8 °F 52.3 °F 85% 29.99 in 10.0 mi WSW 13.8 mph - N/A   Clear
11:55 PM 55.9 °F 51.8 °F 86% 29.99 in 10.0 mi SW 11.5 mph - N/A   Clear